Domov               UVHVVR             MKGP            O straneh              
ZDRAVSTVENO VARSTVO RASTLIN
  MREŽA AGROMET. POSTAJ
 ► PROGNOSTIČNA OBVESTILA
AGROMETEOROLOŠKI PODATKI -
ARSO
OBVLADOVANJE TVEGANJ ZARADI
NEUGODNIH VREMENSKIH RAZMER
  ► NARAVNE NESREČE
  ► SUŠA/MOČA
  ► NAMAKANJE
  ► ŽLED (gozdarstvo)
KARTOGRAFSKI PRIKAZI
SPLETNE POVEZAVE
PROJEKTI IN PUBLIKACIJE

AGROMETEOROLOŠKA MREŽA: VREMENSKE POSTAJE IN FENOLOŠKA OPAZOVANJA

Pregled podatkov za lokacijo Črmljenšak, meteorološka postaja 25166

Pregled senzorjev na lokaciji

ID Ime Zadnja
vrednost
Datum
zadnje
spremembe
Tip
senzorja
4041 Omočenost lista (U) 0 U 19.10.2017 16:00 A730WET
4043 Padavine 0.2 mm (mm) 0 mm 19.10.2017 16:00 Generic 0.2 mm
4048 Temperatura 2 m ( °C) 20,07 °C 19.10.2017 16:00 Generic -40 - +60 °C
4049 Relativna vlaga 2 m (% RH) 52,06 % RH 19.10.2017 15:59 Generic 0 - 100 %

Pregled podatkov zadnjih 24 ur

Zap.
št.
Datum in čas Črmljenšak
Omočenost
lista
Padavine
0.2
mm
Relativna
vlaga
2
m
Temperatura
2
m
0 19.10.2017 15:00 0 0 52,06 20,07
1 19.10.2017 14:30 0 0 37,83 21,2
2 19.10.2017 14:00 0 0 39,1 20,49
3 19.10.2017 13:30 0 0 47,5 19,71
4 19.10.2017 13:00 0 0 48,21 19,73
5 19.10.2017 12:30 0 0 50,82 19,02
6 19.10.2017 12:00 0 0 53,41 18,24
7 19.10.2017 11:30 0 0 54,73 17,68
8 19.10.2017 11:00 0 0 56,46 16,87
9 19.10.2017 10:30 0 0 59,44 15,56
10 19.10.2017 10:00 0 0 65,54 15,09
11 19.10.2017 09:30 0 0 71,53 13,99
12 19.10.2017 09:00 0 0 74,41 12,8
13 19.10.2017 08:30 0 0 74,63 12,23
14 19.10.2017 08:00 0 0 75,29 11,7
15 19.10.2017 07:30 10 0 82,08 9,89
16 19.10.2017 07:00 9 0 91,87 7,52
17 19.10.2017 06:30 4 0 88,6 7,3
18 19.10.2017 06:00 0 0 81,25 8,38
19 19.10.2017 05:30 0 0 74,21 9,16
20 19.10.2017 05:00 0 0 80,88 8,06
21 19.10.2017 04:30 0 0 69,45 9,87
22 19.10.2017 04:00 0 0 69,87 9,79
23 19.10.2017 03:30 0 0 73,82 9,33
24 19.10.2017 03:00 0 0 67,96 10,53
25 19.10.2017 02:30 0 0 68,52 10,5
26 19.10.2017 02:00 0 0 65,81 11,14
27 19.10.2017 01:30 0 0 64,03 11,65
28 19.10.2017 01:00 0 0 65,15 11,7
29 19.10.2017 00:30 0 0 65,37 12,14
30 19.10.2017 00:00 0 0 66,57 12,19
31 18.10.2017 23:30 0 0 65,64 12,33
32 18.10.2017 23:00 0 0 66,15 12,55
33 18.10.2017 22:30 0 0 62,49 13,48
34 18.10.2017 22:00 0 0 60,24 13,89
35 18.10.2017 21:30 0 0 56,95 14,51
36 18.10.2017 21:00 0 0 53,82 14,9
37 18.10.2017 20:30 0 0 49,35 15,8
38 18.10.2017 20:00 0 0 44,22 16,97
39 18.10.2017 19:30 0 0 40,83 17,78
40 18.10.2017 19:00 0 0 39,56 17,92
41 18.10.2017 18:30 0 0 39,49 18,07
42 18.10.2017 18:00 0 0 37,02 18,68
43 18.10.2017 17:30 0 0 37,78 18,93
44 18.10.2017 17:00 0 0 36,83 19,58
45 18.10.2017 16:30 0 0 33,48 20,44
© 2011 Ministrstvo za kmetijstvo, gozdarstvo in prehrano. Vse pravice pridržane.